Flag for Greece Weather past 2 weeks in Acharnes, Greece

Now
81 °F

Passing clouds.


Feels Like: 82 °F
Forecast: 67 / 93 °F
Wind: 6 mph from Southwest

Location: Elefsis Airport

Current Time: Sep 2, 2015 at 8:52:03 PM

Latest Report: Sep 2, 2015 at 7:50 PM


Visibility: N/A

Pressure: 29.83 "Hg

Humidity: 54%

Dew point: 63 °F

Location of AcharnesLocation

Historic Weather in Acharnes — Graph

°F

Acharnes temperature yesterday

Maximum temperature yesterday: 97 °F (at 3:50 PM)
Minimum temperature yesterday: 73 °F (at 11:50 PM)
Average temperature yesterday: 85 °F

Past Weeks' High & Low Weather Summary

 TemperatureHumidityPressure
High97 °F (Aug 20, 2:20 PM)74% (Aug 21, 3:20 PM)30.09 "Hg (Aug 21, 3:20 PM)
Low66 °F (Sep 2, 6:50 AM)12% (Aug 29, 3:20 PM)29.80 "Hg (Aug 18, 7:20 PM)
Average83 °F38%29.94 "Hg
* Reported Aug 18 7:20 PM — Sep 2 7:20 PM, Acharnes, Weather by CustomWeather, © 2015

Note: Actual official high and low records may vary slightly from our data, if they occured in-between our weather recording intervals... More about our weather records

Advertising

Acharnes weather history for previous 24 hours

 ConditionsComfort  
Time TempWeatherWind HumidityBarometerVisibility
7:20 PM
Wed, Sep 2
82 °FSunny.6 mph51%29.83 "Hg10 mi
6:20 PM84 °FSunny.12 mph45%29.83 "Hg10 mi
5:50 PM84 °FPassing clouds.13 mph43%29.83 "HgN/A
5:20 PM86 °FPassing clouds.12 mph43%29.83 "HgN/A
4:50 PM86 °FPassing clouds.12 mph49%29.83 "HgN/A
4:20 PM88 °FSunny.10 mph38%29.83 "Hg10 mi
3:50 PM88 °FSunny.10 mph46%29.83 "Hg10 mi
3:20 PM90 °FSunny.8 mph41%29.83 "Hg10 mi
2:50 PM88 °FSunny.10 mph43%29.86 "Hg10 mi
2:20 PM88 °FSunny.9 mph46%29.86 "Hg10 mi
1:50 PM88 °FSunny.9 mph43%29.86 "Hg10 mi
1:20 PM88 °FSunny.8 mph43%29.86 "Hg10 mi
12:50 PM88 °FSunny.7 mph43%29.86 "Hg10 mi
12:20 PM88 °FSunny.6 mph40%29.86 "Hg10 mi
11:50 AM86 °FSunny.5 mph38%29.86 "Hg10 mi
11:20 AM86 °FSunny.3 mph38%29.86 "Hg10 mi
10:50 AM84 °FSunny.3 mph40%29.86 "Hg10 mi
10:20 AM84 °FSunny.3 mph40%29.86 "Hg10 mi
9:50 AM82 °FSunny.No wind45%29.86 "Hg10 mi
9:20 AM79 °FSunny.No wind42%29.86 "Hg10 mi
8:50 AM75 °FSunny.No wind44%29.86 "Hg10 mi
8:20 AM73 °FSunny.3 mph50%29.86 "Hg10 mi
7:50 AM70 °FClear.3 mph53%29.86 "Hg10 mi
7:20 AM68 °FClear.3 mph56%29.86 "Hg10 mi
6:50 AM66 °FClear.5 mph60%29.86 "Hg10 mi
6:20 AM68 °FClear.5 mph56%29.86 "Hg10 mi
5:50 AM68 °FClear.5 mph56%29.86 "Hg10 mi
5:20 AM68 °FClear.5 mph56%29.86 "Hg10 mi
4:50 AM68 °FClear.6 mph56%29.86 "Hg10 mi
4:20 AM68 °FClear.6 mph60%29.86 "Hg10 mi
3:50 AM68 °FClear.6 mph60%29.86 "Hg10 mi
3:20 AM68 °FClear.5 mph56%29.86 "Hg10 mi
2:50 AM70 °FClear.5 mph53%29.86 "Hg10 mi
2:20 AM70 °FClear.5 mph57%29.89 "Hg10 mi
1:50 AM70 °FClear.5 mph57%29.89 "Hg10 mi
12:20 AM72 °FClear.3 mph65%29.89 "Hg10 mi
11:50 PM
Tue, Sep 1
73 °FClear.No wind65%29.89 "Hg10 mi
11:20 PM75 °FClear.5 mph74%29.89 "Hg10 mi
10:50 PM77 °FClear.5 mph69%29.89 "Hg10 mi
10:20 PM79 °FClear.5 mph65%29.89 "Hg10 mi
9:50 PM79 °FClear.5 mph65%29.89 "Hg10 mi
9:20 PM81 °FClear.5 mph58%29.86 "Hg10 mi
8:50 PM81 °FSunny.5 mph58%29.86 "Hg10 mi
8:20 PM81 °FSunny.9 mph58%29.86 "Hg10 mi
Weather by CustomWeather, © 2015

See weather overviewHow to use our weather pages